| time (UTC) | temp F | wind direction | speed MPH | gust MPH | rain 1hr in | rain 24hr in | rain mn in | humidity % | barometer mb |
| 20260901172600 | 65 | 0 | 0.0 | 3.0 | 0.00 | 0.00 | 0.00 | 81 | 1018.3 |
| 20260901172100 | 65 | 0 | 0.0 | 3.0 | 0.00 | 0.00 | 0.00 | 80 | 1018.3 |
| 20260901171605 | 66 | 288 | 0.0 | 1.0 | 0.00 | 0.00 | 0.00 | 78 | 1018.3 |
| 20260901171100 | 66 | 0 | 0.0 | 3.0 | 0.00 | 0.00 | 0.00 | 79 | 1018.2 |
| 20260901170601 | 66 | 168 | 0.0 | 3.0 | 0.00 | 0.00 | 0.00 | 78 | 1018.2 |
| 20260901165604 | 66 | 0 | 0.0 | 4.0 | 0.00 | 0.00 | 0.00 | 80 | 1018.3 |
| 20260901165100 | 67 | 0 | 0.0 | 4.0 | 0.00 | 0.00 | 0.00 | 80 | 1018.2 |
| 20260901164606 | 68 | 163 | 0.0 | 3.0 | 0.00 | 0.00 | 0.00 | 81 | 1018.1 |
| 20260901164103 | 68 | 0 | 0.0 | 3.0 | 0.00 | 0.00 | 0.00 | 82 | 1018.0 |
| 20260901163600 | 68 | 289 | 0.0 | 3.0 | 0.00 | 0.00 | 0.00 | 82 | 1017.9 |
| 20260901163104 | 68 | 0 | 0.0 | 3.0 | 0.00 | 0.00 | 0.00 | 81 | 1017.9 |
| 20260901162600 | 68 | 0 | 0.0 | 3.0 | 0.00 | 0.00 | 0.00 | 80 | 1017.9 |
| 20260901162059 | 69 | 0 | 0.0 | 3.0 | 0.00 | 0.00 | 0.00 | 78 | 1017.9 |
| 20260901161614 | 69 | 0 | 1.0 | 5.0 | 0.00 | 0.00 | 0.00 | 78 | 1018.1 |
| 20260901161101 | 69 | 0 | 1.0 | 5.0 | 0.00 | 0.00 | 0.00 | 79 | 1018.1 |
| 20260901160600 | 69 | 188 | 1.0 | 5.0 | 0.00 | 0.00 | 0.00 | 80 | 1017.9 |
| 20260901155600 | 70 | 57 | 0.0 | 4.0 | 0.00 | 0.00 | 0.00 | 82 | 1017.8 |
| 20260901155100 | 69 | 89 | 0.0 | 4.0 | 0.00 | 0.00 | 0.00 | 81 | 1018.0 |
| 20260901154605 | 70 | 0 | 0.0 | 3.0 | 0.00 | 0.00 | 0.00 | 84 | 1018.1 |
| 20260901154100 | 70 | 0 | 0.0 | 3.0 | 0.00 | 0.00 | 0.00 | 84 | 1018.0 |
| 20260901153600 | 70 | 170 | 1.0 | 4.0 | 0.00 | 0.00 | 0.00 | 82 | 1018.1 |
| 20260901153103 | 71 | 222 | 1.0 | 4.0 | 0.00 | 0.00 | 0.00 | 84 | 1018.1 |
| 20260901152559 | 71 | 0 | 1.0 | 4.0 | 0.00 | 0.00 | 0.00 | 84 | 1018.1 |
| 20260901152059 | 71 | 333 | 0.0 | 4.0 | 0.00 | 0.00 | 0.00 | 85 | 1018.2 |
| 20260901151602 | 71 | 0 | 0.0 | 4.0 | 0.00 | 0.00 | 0.00 | 84 | 1018.1 |
| 20260901151102 | 71 | 0 | 1.0 | 4.0 | 0.00 | 0.00 | 0.00 | 84 | 1018.1 |
| 20260901150603 | 71 | 117 | 1.0 | 6.0 | 0.00 | 0.00 | 0.00 | 85 | 1018.2 |
| 20260901150130 | 71 | 0 | 2.0 | 6.0 | 0.00 | 0.00 | 0.00 | 84 | 1018.2 |
| 20260901145602 | 72 | 106 | 1.0 | 4.0 | 0.00 | 0.00 | 0.00 | 87 | 1018.3 |
| 20260901145101 | 70 | 0 | 1.0 | 4.0 | 0.00 | 0.00 | 0.00 | 88 | 1018.3 |
| 20260901144604 | 70 | 96 | 0.0 | 4.0 | 0.00 | 0.00 | 0.00 | 88 | 1018.2 |
| 20260901144102 | 69 | 0 | 2.0 | 4.0 | 0.00 | 0.00 | 0.00 | 89 | 1018.1 |
| 20260901143600 | 69 | 117 | 2.0 | 4.0 | 0.00 | 0.00 | 0.00 | 89 | 1018.0 |
| 20260901143136 | 69 | 104 | 0.0 | 1.0 | 0.00 | 0.00 | 0.00 | 90 | 1018.2 |
| 20260901142559 | 68 | 0 | 0.0 | 0.0 | 0.00 | 0.00 | 0.00 | 90 | 1018.4 |
| 20260901142100 | 68 | 0 | 0.0 | 0.0 | 0.00 | 0.00 | 0.00 | 90 | 1018.4 |
| 20260901141611 | 68 | 0 | 0.0 | 0.0 | 0.00 | 0.00 | 0.00 | 90 | 1018.4 |
| 20260901141100 | 68 | 0 | 0.0 | 0.0 | 0.00 | 0.00 | 0.00 | 90 | 1018.5 |
| 20260901140559 | 67 | 0 | 0.0 | 0.0 | 0.00 | 0.00 | 0.00 | 89 | 1018.6 |
| 20260901140107 | 67 | 0 | 0.0 | 0.0 | 0.00 | 0.00 | 0.00 | 90 | 1018.7 |
| 20260901135601 | 67 | 0 | 0.0 | 0.0 | 0.00 | 0.00 | 0.00 | 89 | 1018.6 |
| 20260901135102 | 67 | 0 | 0.0 | 2.0 | 0.00 | 0.00 | 0.00 | 90 | 1018.6 |
| 20260901134604 | 67 | 0 | 0.0 | 2.0 | 0.00 | 0.00 | 0.00 | 90 | 1018.3 |
| 20260901134104 | 67 | 0 | 0.0 | 2.0 | 0.00 | 0.00 | 0.00 | 90 | 1018.2 |
| 20260901133602 | 67 | 0 | 0.0 | 2.0 | 0.00 | 0.00 | 0.00 | 90 | 1018.2 |
| 20260901133110 | 67 | 70 | 0.0 | 2.0 | 0.00 | 0.00 | 0.00 | 90 | 1018.3 |
| 20260901132600 | 67 | 0 | 1.0 | 2.0 | 0.00 | 0.00 | 0.00 | 91 | 1018.4 |
| 20260901132102 | 66 | 0 | 0.0 | 1.0 | 0.00 | 0.00 | 0.00 | 91 | 1018.3 |
| 20260901131605 | 66 | 0 | 0.0 | 0.0 | 0.00 | 0.00 | 0.00 | 91 | 1018.6 |
| 20260901131100 | 66 | 0 | 0.0 | 0.0 | 0.00 | 0.00 | 0.00 | 91 | 1018.6 |
| 20260901130601 | 66 | 0 | 0.0 | 1.0 | 0.00 | 0.00 | 0.00 | 91 | 1018.5 |
| 20260901130108 | 66 | 0 | 0.0 | 1.0 | 0.00 | 0.00 | 0.00 | 90 | 1018.4 |
| 20260901125600 | 66 | 0 | 0.0 | 2.0 | 0.00 | 0.00 | 0.00 | 90 | 1018.4 |
| 20260901125103 | 66 | 0 | 0.0 | 2.0 | 0.00 | 0.00 | 0.00 | 90 | 1018.3 |
| 20260901124605 | 66 | 0 | 0.0 | 0.0 | 0.00 | 0.00 | 0.00 | 90 | 1018.3 |
| 20260901124100 | 66 | 0 | 0.0 | 0.0 | 0.00 | 0.00 | 0.00 | 90 | 1018.3 |
| 20260901123601 | 66 | 0 | 0.0 | 0.0 | 0.00 | 0.00 | 0.00 | 90 | 1018.3 |
| 20260901123059 | 66 | 0 | 0.0 | 0.0 | 0.00 | 0.00 | 0.00 | 91 | 1018.3 |
| 20260901122601 | 66 | 0 | 0.0 | 0.0 | 0.00 | 0.00 | 0.00 | 91 | 1018.4 |
| 20260901122104 | 66 | 0 | 0.0 | 0.0 | 0.00 | 0.00 | 0.00 | 91 | 1018.4 |
| 20260901121603 | 66 | 0 | 0.0 | 0.0 | 0.00 | 0.00 | 0.00 | 91 | 1018.3 |
| 20260901121101 | 66 | 0 | 0.0 | 0.0 | 0.00 | 0.00 | 0.00 | 91 | 1018.4 |
| 20260901120559 | 66 | 0 | 0.0 | 2.0 | 0.00 | 0.00 | 0.00 | 91 | 1018.4 |
| 20260901120121 | 66 | 0 | 0.0 | 2.0 | 0.00 | 0.00 | 0.00 | 91 | 1018.3 |
| 20260901115600 | 66 | 0 | 0.0 | 0.0 | 0.00 | 0.00 | 0.00 | 91 | 1018.3 |
| 20260901115101 | 66 | 0 | 0.0 | 3.0 | 0.00 | 0.00 | 0.00 | 91 | 1018.2 |
| 20260901114603 | 66 | 0 | 0.0 | 3.0 | 0.00 | 0.00 | 0.00 | 91 | 1018.0 |
| 20260901114100 | 66 | 69 | 0.0 | 0.0 | 0.00 | 0.00 | 0.00 | 91 | 1017.9 |
| 20260901113600 | 65 | 0 | 0.0 | 0.0 | 0.00 | 0.00 | 0.00 | 91 | 1018.1 |
| 20260901113103 | 65 | 0 | 0.0 | 0.0 | 0.00 | 0.00 | 0.00 | 91 | 1018.2 |
| 20260901112600 | 65 | 0 | 0.0 | 0.0 | 0.00 | 0.00 | 0.00 | 91 | 1018.2 |
| 20260901112100 | 65 | 0 | 0.0 | 0.0 | 0.00 | 0.00 | 0.00 | 91 | 1018.0 |
| 20260901111608 | 65 | 0 | 0.0 | 0.0 | 0.00 | 0.00 | 0.00 | 91 | 1018.2 |
| 20260901111101 | 64 | 0 | 0.0 | 0.0 | 0.00 | 0.00 | 0.00 | 91 | 1018.1 |
| 20260901110600 | 64 | 0 | 0.0 | 0.0 | 0.00 | 0.00 | 0.00 | 91 | 1018.0 |
| 20260901110110 | 64 | 0 | 0.0 | 0.0 | 0.00 | 0.00 | 0.00 | 91 | 1018.0 |
| 20260901105601 | 64 | 0 | 0.0 | 0.0 | 0.00 | 0.01 | 0.00 | 91 | 1018.0 |
| 20260901105100 | 64 | 0 | 0.0 | 0.0 | 0.00 | 0.01 | 0.00 | 91 | 1018.0 |
| 20260901104606 | 64 | 0 | 0.0 | 0.0 | 0.00 | 0.01 | 0.00 | 91 | 1018.0 |
| 20260901104101 | 64 | 0 | 0.0 | 0.0 | 0.00 | 0.01 | 0.00 | 91 | 1017.9 |
| 20260901103604 | 64 | 0 | 0.0 | 0.0 | 0.00 | 0.01 | 0.00 | 91 | 1017.8 |
| 20260901103106 | 64 | 0 | 0.0 | 0.0 | 0.00 | 0.01 | 0.00 | 91 | 1017.8 |
| 20260901102600 | 64 | 0 | 0.0 | 0.0 | 0.00 | 0.01 | 0.00 | 91 | 1017.7 |
| 20260901102100 | 64 | 0 | 0.0 | 0.0 | 0.00 | 0.01 | 0.00 | 91 | 1017.8 |
| 20260901101607 | 64 | 0 | 0.0 | 0.0 | 0.00 | 0.01 | 0.00 | 91 | 1017.7 |
| 20260901101100 | 64 | 0 | 0.0 | 0.0 | 0.00 | 0.01 | 0.00 | 91 | 1017.8 |
| 20260901100603 | 64 | 0 | 0.0 | 0.0 | 0.00 | 0.01 | 0.00 | 91 | 1017.7 |
| 20260901095600 | 64 | 0 | 0.0 | 0.0 | 0.00 | 0.01 | 0.00 | 91 | 1017.7 |
| 20260901095101 | 64 | 0 | 0.0 | 0.0 | 0.00 | 0.01 | 0.00 | 91 | 1017.7 |
| 20260901094605 | 64 | 0 | 0.0 | 0.0 | 0.00 | 0.01 | 0.00 | 91 | 1017.7 |
| 20260901094100 | 64 | 0 | 0.0 | 0.0 | 0.00 | 0.01 | 0.00 | 91 | 1017.7 |
| 20260901093600 | 64 | 0 | 0.0 | 0.0 | 0.00 | 0.01 | 0.00 | 91 | 1017.7 |
| 20260901093108 | 64 | 0 | 0.0 | 0.0 | 0.00 | 0.01 | 0.00 | 91 | 1017.8 |
| 20260901092600 | 63 | 0 | 0.0 | 0.0 | 0.00 | 0.01 | 0.00 | 91 | 1017.8 |
| 20260901092100 | 64 | 0 | 0.0 | 0.0 | 0.00 | 0.01 | 0.00 | 91 | 1017.7 |
| 20260901091606 | 63 | 0 | 0.0 | 0.0 | 0.00 | 0.01 | 0.00 | 91 | 1017.6 |
| 20260901091101 | 63 | 0 | 0.0 | 0.0 | 0.00 | 0.01 | 0.00 | 91 | 1017.7 |
| 20260901090558 | 63 | 0 | 0.0 | 0.0 | 0.00 | 0.01 | 0.00 | 90 | 1017.8 |
| 20260901085558 | 64 | 0 | 0.0 | 0.0 | 0.00 | 0.01 | 0.00 | 90 | 1017.8 |
| 20260901085058 | 64 | 0 | 0.0 | 0.0 | 0.00 | 0.01 | 0.00 | 90 | 1017.8 |
| 20260901084606 | 64 | 0 | 0.0 | 0.0 | 0.00 | 0.01 | 0.00 | 89 | 1017.9 |
| 20260901084058 | 64 | 0 | 0.0 | 0.0 | 0.00 | 0.01 | 0.00 | 89 | 1017.9 |
| 20260901083601 | 64 | 0 | 0.0 | 0.0 | 0.00 | 0.01 | 0.00 | 89 | 1017.9 |
| 20260901083104 | 64 | 0 | 0.0 | 0.0 | 0.00 | 0.01 | 0.00 | 90 | 1018.2 |
| 20260901082558 | 64 | 0 | 0.0 | 0.0 | 0.00 | 0.01 | 0.00 | 90 | 1018.3 |
| 20260901082059 | 64 | 0 | 0.0 | 0.0 | 0.00 | 0.01 | 0.00 | 90 | 1018.4 |
| 20260901081602 | 64 | 0 | 0.0 | 0.0 | 0.00 | 0.01 | 0.00 | 90 | 1018.4 |
| 20260901081102 | 64 | 0 | 0.0 | 0.0 | 0.00 | 0.01 | 0.00 | 90 | 1018.6 |
| 20260901080600 | 64 | 0 | 0.0 | 1.0 | 0.00 | 0.01 | 0.00 | 90 | 1018.5 |
| 20260901080105 | 64 | 0 | 0.0 | 1.0 | 0.00 | 0.01 | 0.00 | 89 | 1018.5 |
| 20260901075558 | 64 | 0 | 0.0 | 0.0 | 0.00 | 0.01 | 0.00 | 89 | 1018.4 |
| 20260901075058 | 64 | 0 | 0.0 | 0.0 | 0.00 | 0.01 | 0.00 | 89 | 1018.4 |
| 20260901074604 | 64 | 0 | 0.0 | 0.0 | 0.00 | 0.01 | 0.00 | 89 | 1018.4 |
| 20260901074058 | 64 | 0 | 0.0 | 0.0 | 0.00 | 0.01 | 0.00 | 89 | 1018.4 |
| 20260901073600 | 65 | 0 | 0.0 | 0.0 | 0.00 | 0.01 | 0.00 | 89 | 1018.4 |
| 20260901073103 | 64 | 0 | 0.0 | 0.0 | 0.00 | 0.01 | 0.00 | 89 | 1018.4 |
| 20260901072600 | 64 | 0 | 0.0 | 0.0 | 0.00 | 0.01 | 0.00 | 89 | 1018.5 |
| 20260901072059 | 64 | 0 | 0.0 | 1.0 | 0.00 | 0.01 | 0.00 | 89 | 1018.5 |
| 20260901071628 | 64 | 0 | 0.0 | 1.0 | 0.00 | 0.01 | 0.00 | 89 | 1018.5 |
| 20260901071059 | 64 | 0 | 0.0 | 0.0 | 0.00 | 0.01 | 0.00 | 89 | 1018.6 |
| 20260901070558 | 64 | 0 | 0.0 | 0.0 | 0.00 | 0.01 | 0.00 | 89 | 1018.6 |
| 20260901070103 | 64 | 0 | 0.0 | 0.0 | 0.00 | 0.01 | 0.00 | 89 | 1018.6 |
| 20260901065600 | 64 | 0 | 0.0 | 1.0 | 0.00 | 0.01 | 0.00 | 89 | 1018.5 |
| 20260901065100 | 65 | 0 | 0.0 | 1.0 | 0.00 | 0.01 | 0.00 | 89 | 1018.6 |
| 20260901064603 | 65 | 0 | 0.0 | 0.0 | 0.00 | 0.01 | 0.00 | 89 | 1018.7 |
| 20260901064100 | 64 | 0 | 0.0 | 0.0 | 0.00 | 0.01 | 0.00 | 89 | 1018.6 |
| 20260901063559 | 64 | 0 | 0.0 | 0.0 | 0.00 | 0.01 | 0.00 | 89 | 1018.8 |
| 20260901063105 | 64 | 0 | 0.0 | 0.0 | 0.00 | 0.01 | 0.00 | 89 | 1018.8 |
| 20260901062601 | 64 | 0 | 0.0 | 0.0 | 0.00 | 0.01 | 0.00 | 89 | 1018.8 |
| 20260901062058 | 64 | 0 | 0.0 | 0.0 | 0.00 | 0.01 | 0.00 | 89 | 1018.8 |
| 20260901061604 | 64 | 0 | 0.0 | 0.0 | 0.00 | 0.01 | 0.00 | 89 | 1018.8 |
| 20260901061103 | 64 | 0 | 0.0 | 0.0 | 0.00 | 0.01 | 0.00 | 89 | 1018.7 |
| 20260901060601 | 64 | 0 | 0.0 | 0.0 | 0.00 | 0.01 | 0.00 | 89 | 1018.8 |
| 20260901060117 | 64 | 0 | 0.0 | 0.0 | 0.00 | 0.01 | 0.00 | 89 | 1018.6 |
| 20260901055600 | 64 | 0 | 0.0 | 0.0 | 0.00 | 0.01 | 0.00 | 89 | 1018.7 |
| 20260901055059 | 64 | 0 | 0.0 | 0.0 | 0.00 | 0.01 | 0.00 | 89 | 1018.7 |
| 20260901054606 | 64 | 0 | 0.0 | 0.0 | 0.00 | 0.01 | 0.00 | 89 | 1018.7 |
| 20260901054100 | 64 | 0 | 0.0 | 0.0 | 0.00 | 0.01 | 0.00 | 89 | 1018.8 |
| 20260901053601 | 64 | 0 | 0.0 | 0.0 | 0.00 | 0.01 | 0.00 | 88 | 1018.8 |
| 20260901053114 | 64 | 0 | 0.0 | 0.0 | 0.00 | 0.01 | 0.00 | 88 | 1018.9 |
| 20260901052601 | 64 | 0 | 0.0 | 0.0 | 0.00 | 0.01 | 0.00 | 88 | 1019.0 |
| 20260901052059 | 64 | 0 | 0.0 | 0.0 | 0.00 | 0.01 | 0.00 | 88 | 1019.0 |
| 20260901051606 | 64 | 0 | 0.0 | 0.0 | 0.00 | 0.01 | 0.00 | 88 | 1018.9 |
| 20260901051059 | 64 | 0 | 0.0 | 0.0 | 0.00 | 0.01 | 0.00 | 87 | 1018.9 |
| 20260901050559 | 65 | 0 | 0.0 | 0.0 | 0.00 | 0.01 | 0.00 | 87 | 1018.9 |
| 20260901045559 | 65 | 0 | 0.0 | 1.0 | 0.00 | 0.04 | 0.00 | 87 | 1018.9 |
| 20260901045059 | 65 | 0 | 0.0 | 1.0 | 0.00 | 0.04 | 0.00 | 87 | 1019.1 |
| 20260901044609 | 65 | 0 | 0.0 | 2.0 | 0.00 | 0.04 | 0.00 | 87 | 1019.0 |
| 20260901044100 | 65 | 0 | 0.0 | 2.0 | 0.00 | 0.04 | 0.00 | 87 | 1018.9 |
| 20260901043601 | 65 | 0 | 0.0 | 2.0 | 0.00 | 0.04 | 0.00 | 87 | 1018.9 |
| 20260901043126 | 65 | 0 | 0.0 | 2.0 | 0.00 | 0.04 | 0.00 | 87 | 1018.9 |
| 20260901042600 | 65 | 0 | 0.0 | 1.0 | 0.00 | 0.04 | 0.00 | 87 | 1019.1 |
| 20260901042059 | 65 | 0 | 0.0 | 1.0 | 0.00 | 0.04 | 0.00 | 87 | 1019.2 |
| 20260901041601 | 65 | 0 | 0.0 | 1.0 | 0.00 | 0.04 | 0.00 | 87 | 1019.2 |
| 20260901041100 | 65 | 0 | 0.0 | 1.0 | 0.00 | 0.04 | 0.00 | 87 | 1019.2 |
| 20260901040559 | 65 | 0 | 0.0 | 1.0 | 0.00 | 0.04 | 0.00 | 87 | 1019.2 |
| 20260901040125 | 65 | 0 | 0.0 | 1.0 | 0.00 | 0.04 | 0.00 | 87 | 1019.2 |
| 20260901035600 | 65 | 0 | 0.0 | 1.0 | 0.00 | 0.05 | 0.04 | 87 | 1019.3 |
| 20260901035058 | 65 | 172 | 0.0 | 0.0 | 0.00 | 0.05 | 0.04 | 87 | 1019.2 |
| 20260901034607 | 65 | 0 | 0.0 | 0.0 | 0.00 | 0.05 | 0.04 | 87 | 1019.2 |
| 20260901034059 | 65 | 0 | 0.0 | 0.0 | 0.00 | 0.05 | 0.04 | 86 | 1019.2 |
| 20260901033600 | 65 | 0 | 0.0 | 0.0 | 0.00 | 0.05 | 0.04 | 86 | 1019.2 |
| 20260901033131 | 65 | 0 | 0.0 | 0.0 | 0.00 | 0.05 | 0.04 | 86 | 1019.2 |
| 20260901032604 | 65 | 0 | 0.0 | 0.0 | 0.00 | 0.05 | 0.04 | 86 | 1019.2 |
| 20260901032100 | 65 | 0 | 0.0 | 0.0 | 0.00 | 0.05 | 0.04 | 86 | 1019.3 |
| 20260901031628 | 65 | 0 | 0.0 | 1.0 | 0.00 | 0.05 | 0.04 | 87 | 1019.3 |
| 20260901031059 | 65 | 0 | 0.0 | 1.0 | 0.00 | 0.05 | 0.04 | 87 | 1019.3 |
| 20260901030559 | 65 | 0 | 0.0 | 0.0 | 0.00 | 0.05 | 0.04 | 86 | 1019.3 |
| 20260901025600 | 65 | 0 | 0.0 | 1.0 | 0.00 | 0.12 | 0.04 | 86 | 1019.3 |
| 20260901025100 | 65 | 0 | 0.0 | 0.0 | 0.00 | 0.12 | 0.04 | 86 | 1019.3 |
| 20260901024601 | 65 | 0 | 0.0 | 0.0 | 0.00 | 0.12 | 0.04 | 86 | 1019.3 |
| 20260901024102 | 65 | 0 | 0.0 | 1.0 | 0.00 | 0.12 | 0.04 | 86 | 1019.3 |
| 20260901023601 | 65 | 0 | 0.0 | 1.0 | 0.00 | 0.12 | 0.04 | 85 | 1019.3 |
| 20260901023109 | 65 | 0 | 0.0 | 0.0 | 0.00 | 0.12 | 0.04 | 85 | 1019.3 |
| 20260901022559 | 66 | 0 | 0.0 | 0.0 | 0.00 | 0.12 | 0.04 | 85 | 1019.4 |
| 20260901022059 | 65 | 0 | 0.0 | 0.0 | 0.00 | 0.12 | 0.04 | 85 | 1019.4 |
| 20260901021605 | 65 | 0 | 0.0 | 1.0 | 0.00 | 0.12 | 0.04 | 85 | 1019.5 |
| 20260901021100 | 65 | 0 | 0.0 | 1.0 | 0.00 | 0.12 | 0.04 | 86 | 1019.6 |
| 20260901020600 | 66 | 0 | 0.0 | 0.0 | 0.00 | 0.12 | 0.04 | 86 | 1019.6 |
| 20260901015559 | 66 | 0 | 0.0 | 0.0 | 0.00 | 0.12 | 0.04 | 85 | 1019.6 |
| 20260901015059 | 66 | 0 | 0.0 | 0.0 | 0.00 | 0.12 | 0.04 | 85 | 1019.7 |
| 20260901014608 | 66 | 0 | 0.0 | 0.0 | 0.00 | 0.12 | 0.04 | 85 | 1019.7 |
| 20260901014059 | 66 | 0 | 0.0 | 0.0 | 0.00 | 0.12 | 0.04 | 85 | 1019.6 |
| 20260901013600 | 66 | 0 | 0.0 | 0.0 | 0.00 | 0.12 | 0.04 | 85 | 1019.6 |
| 20260901013103 | 66 | 0 | 0.0 | 0.0 | 0.00 | 0.12 | 0.04 | 85 | 1019.6 |
| 20260901012559 | 66 | 0 | 0.0 | 0.0 | 0.00 | 0.12 | 0.04 | 84 | 1019.5 |
| 20260901012103 | 67 | 0 | 0.0 | 0.0 | 0.00 | 0.12 | 0.04 | 83 | 1019.6 |
| 20260901011604 | 67 | 0 | 0.0 | 2.0 | 0.00 | 0.12 | 0.04 | 83 | 1019.5 |
| 20260901011100 | 67 | 0 | 0.0 | 2.0 | 0.00 | 0.12 | 0.04 | 83 | 1019.6 |
| 20260901010600 | 67 | 0 | 0.0 | 2.0 | 0.00 | 0.12 | 0.04 | 83 | 1019.5 |
| 20260901010104 | 67 | 0 | 0.0 | 0.0 | 0.00 | 0.12 | 0.04 | 83 | 1019.5 |
| 20260901005600 | 67 | 0 | 0.0 | 0.0 | 0.00 | 0.12 | 0.04 | 84 | 1019.4 |
| 20260901005059 | 67 | 0 | 0.0 | 0.0 | 0.00 | 0.12 | 0.04 | 84 | 1019.4 |
| 20260901004608 | 67 | 0 | 0.0 | 0.0 | 0.00 | 0.12 | 0.04 | 84 | 1019.5 |
| 20260901004059 | 67 | 0 | 0.0 | 2.0 | 0.00 | 0.12 | 0.04 | 84 | 1019.5 |
| 20260901003600 | 67 | 0 | 0.0 | 2.0 | 0.00 | 0.12 | 0.04 | 84 | 1019.5 |
| 20260901003105 | 67 | 0 | 0.0 | 2.0 | 0.00 | 0.12 | 0.04 | 84 | 1019.5 |
| 20260901002600 | 67 | 0 | 0.0 | 0.0 | 0.00 | 0.12 | 0.04 | 83 | 1019.4 |
| 20260901002059 | 68 | 0 | 0.0 | 0.0 | 0.00 | 0.12 | 0.04 | 83 | 1019.5 |
| 20260901001622 | 68 | 0 | 0.0 | 0.0 | 0.00 | 0.12 | 0.04 | 83 | 1019.5 |
| 20260901001104 | 68 | 0 | 0.0 | 0.0 | 0.00 | 0.12 | 0.04 | 83 | 1019.4 |
| 20260901000559 | 68 | 0 | 0.0 | 0.0 | 0.00 | 0.12 | 0.04 | 83 | 1019.5 |
| 20260901000111 | 68 | 0 | 0.0 | 0.0 | 0.00 | 0.12 | 0.04 | 83 | 1019.5 |
| 20260831235559 | 68 | 0 | 0.0 | 0.0 | 0.00 | 0.12 | 0.04 | 83 | 1019.5 |
| 20260831235104 | 68 | 0 | 0.0 | 0.0 | 0.00 | 0.12 | 0.04 | 83 | 1019.5 |
| 20260831234603 | 68 | 0 | 0.0 | 0.0 | 0.00 | 0.12 | 0.04 | 82 | 1019.4 |
| 20260831234059 | 68 | 0 | 0.0 | 0.0 | 0.00 | 0.12 | 0.04 | 82 | 1019.4 |
| 20260831233600 | 68 | 0 | 0.0 | 0.0 | 0.00 | 0.12 | 0.04 | 81 | 1019.4 |
| 20260831233106 | 68 | 0 | 0.0 | 0.0 | 0.00 | 0.12 | 0.04 | 81 | 1019.5 |
| 20260831232559 | 68 | 0 | 0.0 | 0.0 | 0.00 | 0.12 | 0.04 | 81 | 1019.5 |
| 20260831232100 | 68 | 0 | 0.0 | 0.0 | 0.00 | 0.12 | 0.04 | 81 | 1019.4 |
| 20260831231603 | 68 | 0 | 0.0 | 0.0 | 0.00 | 0.12 | 0.04 | 81 | 1019.4 |
| 20260831231101 | 68 | 0 | 0.0 | 0.0 | 0.00 | 0.12 | 0.04 | 81 | 1019.4 |
| 20260831230600 | 68 | 0 | 0.0 | 0.0 | 0.00 | 0.12 | 0.04 | 80 | 1019.3 |
| 20260831230115 | 68 | 0 | 0.0 | 0.0 | 0.00 | 0.12 | 0.04 | 79 | 1019.4 |
| 20260831225600 | 69 | 0 | 0.0 | 2.0 | 0.00 | 0.12 | 0.04 | 78 | 1019.3 |
| 20260831225101 | 69 | 0 | 0.0 | 2.0 | 0.00 | 0.12 | 0.04 | 78 | 1019.4 |
| 20260831224602 | 69 | 0 | 0.0 | 1.0 | 0.00 | 0.12 | 0.04 | 76 | 1019.4 |
| 20260831224101 | 69 | 0 | 0.0 | 1.0 | 0.00 | 0.12 | 0.04 | 77 | 1019.5 |
| 20260831223600 | 70 | 0 | 0.0 | 2.0 | 0.00 | 0.12 | 0.04 | 76 | 1019.6 |
| 20260831223108 | 70 | 0 | 0.0 | 2.0 | 0.00 | 0.12 | 0.04 | 76 | 1019.6 |
| 20260831222600 | 70 | 0 | 0.0 | 0.0 | 0.00 | 0.12 | 0.04 | 76 | 1019.6 |
| 20260831222059 | 70 | 0 | 0.0 | 0.0 | 0.00 | 0.12 | 0.04 | 75 | 1019.7 |
| 20260831221605 | 70 | 0 | 0.0 | 1.0 | 0.00 | 0.12 | 0.04 | 75 | 1019.7 |
| 20260831221101 | 70 | 0 | 0.0 | 1.0 | 0.00 | 0.12 | 0.04 | 76 | 1019.7 |
| 20260831220600 | 70 | 0 | 0.0 | 2.0 | 0.00 | 0.12 | 0.04 | 77 | 1019.7 |
| 20260831220104 | 70 | 0 | 0.0 | 3.0 | 0.00 | 0.12 | 0.04 | 79 | 1019.6 |
| 20260831215603 | 71 | 0 | 0.0 | 3.0 | 0.00 | 0.12 | 0.04 | 78 | 1019.6 |
| 20260831215101 | 71 | 47 | 0.0 | 4.0 | 0.00 | 0.12 | 0.04 | 77 | 1019.6 |
| 20260831214604 | 72 | 0 | 1.0 | 4.0 | 0.00 | 0.12 | 0.04 | 75 | 1019.6 |
| 20260831214102 | 72 | 0 | 0.0 | 4.0 | 0.00 | 0.12 | 0.04 | 72 | 1019.6 |
| 20260831213601 | 72 | 0 | 1.0 | 5.0 | 0.00 | 0.12 | 0.04 | 72 | 1019.6 |
| 20260831213103 | 72 | 74 | 2.0 | 5.0 | 0.00 | 0.12 | 0.04 | 72 | 1019.6 |
| 20260831212600 | 72 | 75 | 2.0 | 5.0 | 0.00 | 0.12 | 0.04 | 71 | 1019.6 |
| 20260831212100 | 72 | 76 | 1.0 | 5.0 | 0.00 | 0.12 | 0.04 | 72 | 1019.6 |
| 20260831211559 | 72 | 68 | 2.0 | 7.0 | 0.00 | 0.12 | 0.04 | 71 | 1019.5 |
| 20260831211059 | 72 | 76 | 2.0 | 7.0 | 0.00 | 0.12 | 0.04 | 71 | 1019.6 |
| 20260831210559 | 72 | 69 | 3.0 | 7.0 | 0.00 | 0.12 | 0.04 | 71 | 1019.5 |
| 20260831210128 | 72 | 62 | 2.0 | 5.0 | 0.00 | 0.12 | 0.04 | 70 | 1019.6 |
| 20260831205559 | 72 | 76 | 2.0 | 7.0 | 0.00 | 0.12 | 0.04 | 70 | 1019.6 |
| 20260831205100 | 72 | 73 | 3.0 | 7.0 | 0.00 | 0.12 | 0.04 | 70 | 1019.5 |
| 20260831204607 | 73 | 61 | 3.0 | 6.0 | 0.00 | 0.12 | 0.04 | 69 | 1019.5 |
| 20260831204101 | 73 | 71 | 2.0 | 6.0 | 0.00 | 0.12 | 0.04 | 69 | 1019.4 |
| 20260831203559 | 73 | 70 | 3.0 | 6.0 | 0.00 | 0.12 | 0.04 | 68 | 1019.4 |
| 20260831203106 | 74 | 63 | 3.0 | 5.0 | 0.00 | 0.12 | 0.04 | 68 | 1019.4 |
| 20260831202559 | 73 | 67 | 2.0 | 7.0 | 0.00 | 0.12 | 0.04 | 68 | 1019.3 |
| 20260831202100 | 74 | 80 | 2.0 | 7.0 | 0.00 | 0.12 | 0.04 | 67 | 1019.3 |
| 20260831201604 | 74 | 58 | 2.0 | 7.0 | 0.00 | 0.12 | 0.04 | 67 | 1019.5 |
| 20260831201059 | 74 | 76 | 2.0 | 6.0 | 0.00 | 0.12 | 0.04 | 67 | 1019.4 |
| 20260831200600 | 74 | 98 | 2.0 | 7.0 | 0.00 | 0.12 | 0.04 | 66 | 1019.4 |
| 20260831200103 | 75 | 0 | 3.0 | 7.0 | 0.00 | 0.12 | 0.04 | 65 | 1019.3 |
| 20260831195600 | 75 | 80 | 2.0 | 7.0 | 0.00 | 0.12 | 0.04 | 65 | 1019.2 |
| 20260831195102 | 75 | 75 | 2.0 | 4.0 | 0.00 | 0.12 | 0.04 | 64 | 1019.4 |
| 20260831194626 | 76 | 71 | 0.0 | 3.0 | 0.00 | 0.12 | 0.04 | 64 | 1019.4 |
| 20260831194100 | 76 | 106 | 1.0 | 5.0 | 0.00 | 0.12 | 0.04 | 61 | 1019.4 |
| 20260831193559 | 76 | 113 | 1.0 | 5.0 | 0.00 | 0.12 | 0.04 | 59 | 1019.4 |
| 20260831193104 | 77 | 65 | 2.0 | 5.0 | 0.00 | 0.12 | 0.04 | 57 | 1019.4 |
| 20260831192600 | 77 | 81 | 1.0 | 4.0 | 0.00 | 0.12 | 0.04 | 58 | 1019.6 |
| 20260831192101 | 76 | 59 | 2.0 | 4.0 | 0.00 | 0.12 | 0.04 | 60 | 1019.6 |
| 20260831191605 | 74 | 83 | 1.0 | 3.0 | 0.00 | 0.12 | 0.04 | 66 | 1019.6 |
| 20260831191100 | 75 | 0 | 1.0 | 3.0 | 0.00 | 0.12 | 0.04 | 60 | 1019.7 |
| 20260831190600 | 75 | 79 | 0.0 | 3.0 | 0.00 | 0.12 | 0.04 | 61 | 1019.7 |
| 20260831190109 | 76 | 85 | 0.0 | 3.0 | 0.00 | 0.12 | 0.04 | 61 | 1019.8 |
| 20260831185559 | 75 | 254 | 0.0 | 2.0 | 0.00 | 0.12 | 0.04 | 58 | 1020.0 |
| 20260831185059 | 75 | 0 | 0.0 | 2.0 | 0.00 | 0.12 | 0.04 | 62 | 1020.0 |
| 20260831184601 | 75 | 0 | 0.0 | 1.0 | 0.00 | 0.12 | 0.04 | 62 | 1020.0 |
| 20260831184059 | 75 | 0 | 0.0 | 2.0 | 0.00 | 0.12 | 0.04 | 66 | 1020.2 |
| 20260831183601 | 75 | 0 | 0.0 | 2.0 | 0.00 | 0.12 | 0.04 | 61 | 1020.3 |
| 20260831183107 | 75 | 352 | 0.0 | 3.0 | 0.00 | 0.12 | 0.04 | 63 | 1020.3 |
| 20260831182600 | 75 | 0 | 0.0 | 4.0 | 0.00 | 0.12 | 0.04 | 62 | 1020.3 |
| 20260831182100 | 75 | 84 | 1.0 | 4.0 | 0.00 | 0.12 | 0.04 | 60 | 1020.2 |
| 20260831181615 | 75 | 80 | 1.0 | 4.0 | 0.00 | 0.12 | 0.04 | 61 | 1020.3 |
| 20260831181102 | 74 | 76 | 0.0 | 4.0 | 0.00 | 0.12 | 0.04 | 61 | 1020.3 |
| 20260831180559 | 75 | 96 | 1.0 | 3.0 | 0.00 | 0.12 | 0.04 | 61 | 1020.3 |
| 20260831180112 | 75 | 69 | 1.0 | 3.0 | 0.00 | 0.12 | 0.04 | 59 | 1020.3 |
| 20260831175600 | 74 | 79 | 1.0 | 3.0 | 0.00 | 0.12 | 0.04 | 62 | 1020.5 |
| 20260831175100 | 74 | 0 | 0.0 | 4.0 | 0.00 | 0.12 | 0.04 | 59 | 1020.6 |
| 20260831174613 | 74 | 0 | 0.0 | 4.0 | 0.00 | 0.12 | 0.04 | 61 | 1020.6 |
| 20260831174100 | 75 | 117 | 1.0 | 4.0 | 0.00 | 0.12 | 0.04 | 60 | 1020.6 |
| 20260831173600 | 74 | 0 | 0.0 | 3.0 | 0.00 | 0.12 | 0.04 | 61 | 1020.6 |
| 20260831173131 | 74 | 0 | 0.0 | 6.0 | 0.00 | 0.12 | 0.04 | 65 | 1020.7 |